Regional Weather Roundup
Issued by NWS

Home | Current Version | Previous Version | Text Only | Print | Product List | Glossary On
Versions: 1 2 3 4 5 6 7 8 9 10 11 12 13 14 15 16 17 18 19 20 21 22 23 24 25 26 27 28 29 30 31 32 33 34 35 36 37 38 39 40 41 42 43 44 45 46 47 48 49 50
300
ASUS43 KLMK 261402
RWRKY
KENTUCKY REGIONAL WEATHER ROUNDUP
NATIONAL WEATHER SERVICE LOUISVILLE KY
1000 AM EDT TUE JUL 26 2016

NOTE "FAIR" INDICATES FEW OR NO CLOUDS BELOW 12,000 FEET
WITH NO SIGNIFICANT WEATHER AND/OR OBSTRUCTIONS TO VISIBILITY.

KYZ001>023-026-027-061>063-070>075-261500-
WESTERN AND SOUTH CENTRAL KENTUCKY

CITY           SKY/WX    TMP DP  RH WIND       PRES   REMARKS
PADUCAH        MOSUNNY   83  73  72 W5        30.02S
HENDERSON      CLOUDY    77  73  88 W5        30.02S
OWENSBORO      PTSUNNY   82  76  82 SW6       30.04R
HOPKINSVILLE   SUNNY     82  75  80 SW5       30.03F
BOWLING GREEN  SUNNY     85  76  74 CALM      30.04S HX  94
GLASGOW        NOT AVBL
$$

KYZ024-025-028>034-038-045-046-053-261500-
NORTH CENTRAL KENTUCKY

CITY           SKY/WX    TMP DP  RH WIND       PRES   REMARKS
LOUISVILLE/SDF PTSUNNY   82  74  76 SE3       30.02F
LOUISVILLE/LOU MOSUNNY   82  73  74 CALM      30.04R
FORT KNOX      SUNNY     81  73  75 VRB2      30.03S
$$

KYZ035>037-039>044-047>052-055>060-089>105-261500-
NORTHEAST KENTUCKY

CITY           SKY/WX    TMP DP  RH WIND       PRES   REMARKS
LEXINGTON      SUNNY     81  73  76 SW6       30.07S
COVINGTON      PTSUNNY   83  70  64 E5        30.05S
FRANKFORT      SUNNY     82  71  69 SW3       30.04F
$$

KYZ054-064>069-076>088-106>120-261500-
SOUTHEAST KENTUCKY

CITY           SKY/WX    TMP DP  RH WIND       PRES   REMARKS
JACKSON        PTSUNNY   77  72  84 CALM      30.10S
LONDON         SUNNY     81  71  71 SW3       30.09S
SOMERSET       SUNNY     77  75  94 CALM      30.09S
MIDDLESBORO    SUNNY     78  72  82 CALM      30.10F
MONTICELLO     SUNNY    N/A N/A N/A NW8       30.08F
$$





USA.gov is the U.S. government's official web portal to all federal, state and local government web resources and services.